Location: Newark
(42.7133°N, 87.7910°W)
Time: 16:39:09
(UTC+00:00)

Transit 4A - Pass Details

Date: 25 September 2019
Orbit: 867 x 978 km, 66.8° (Epoch: 21 October)

Event Time Altitude Azimuth Distance (km) Brightness Sun altitude
Rises 00:45:21 0° 331° (NNW) 3,595 11.6 -11.8°
Reaches altitude 10° 00:47:58 10° 335° (NNW) 2,630 10.8 -12.3°
Maximum altitude 00:53:59 59° 55° (NE) 1,041 7.9 -13.4°
Enters shadow 00:58:44 16° 132° (SE) 2,164 9.3 -14.2°
